ギャラッド彗星

296P/Garradd (2020)

English version
Home page
Updated on May 17, 2020

---------------------------------------------------------------------

・ プロフィール

・ 軌道要素

Epoch 2020 Sept. 28.0 TT = JDT 2459120.5                                        
T 2020 Sept. 17.92526 TT                                Bell                    
q   1.8234257            (2000.0)            P               Q                  
n   0.15070810     Peri.  350.12598     -0.26328392     +0.86669261             
a   3.4971289      Node   263.64079     -0.85348606     -0.41399746             
e   0.4785935      Incl.   25.23473     -0.44971449     +0.27829844             
P   6.54                                                                        
From 254 observations 2001 June 30-2020 Mar. 3, mean residual 0".9.             

・ 光度変化

        m1 = 14.5 + 5 logΔ + 10.0 log r

---------------------------------------------------------------------

軌道要素はM.P.E.C. 2020-E26に掲載されたものです。
光度グラフはComet for Windowsで作成したものです。

---------------------------------------------------------------------

Copyright(C) Seiichi Yoshida (comet@aerith.net). All rights reserved.